Regional Weather Roundup
Issued by NWS

Home | Current Version | Previous Version | Text Only | Print | Product List | Glossary On
Versions: 1 2 3 4 5 6 7 8 9 10 11 12 13 14 15 16 17 18 19 20 21 22 23 24 25 26 27 28 29 30 31 32 33 34 35 36 37 38 39 40 41 42 43 44 45 46 47 48 49 50
000
ASUS44 KMEG 200410
RWRTN
TENNESSEE HOURLY STATE WEATHER ROUNDUP
NATIONAL WEATHER SERVICE MEMPHIS TN
1100 PM CDT THU OCT 19 2017

TNZ002-004-019-021-049-052-054-088>092-200500-
WEST TENNESSEE

CITY           SKY/WX    TMP DP  RH WIND       PRES   REMARKS
MEMPHIS INTL   FAIR      63  51  65 VRB3      30.21S
NWS MEMPHIS      N/A     55 N/A N/A MISG        N/A
JACKSON        FAIR      50  50 100 SW3       30.23R
SOMERVILLE     CLEAR     52  52 100 CALM      30.21S
COVINGTON      CLEAR     50  50 100 CALM      30.22S
UNION CITY     CLEAR     50  48  93 CALM      30.21S
BOLIVAR        CLEAR     48  48 100 CALM      30.22S FOG
HUNTINGDON     CLEAR     52  50  93 CALM      30.21S
LEXINGTON      CLEAR     48  48 100 CALM      30.22F
SELMER         CLEAR     59  50  72 S5        30.23R
SAVANNAH       CLEAR     48  48 100 CALM      30.23R
$$

TNZ008-025-027-028-033-062-065-066-200500-
NORTH MIDDLE TENNESSEE

CITY           SKY/WX    TMP DP  RH WIND       PRES   REMARKS
NASHVILLE      FAIR      55  49  80 CALM      30.25S
PORTLAND       CLEAR     50  50 100 CALM      30.24S
CLARKSVILLE    FAIR      51  49  92 E3        30.23S FOG
SMYRNA         FAIR      49  47  93 CALM      30.26S
COOKEVILLE     CLEAR     41  39  93 CALM      30.26S
GALLATIN       CLEAR     50  48  93 CALM      30.27S
CROSSVILLE     FAIR      47  45  93 CALM      30.29F
$$

TNZ061-075-076-078-094-096-097-200500-
SOUTH MIDDLE TENNESSEE

CITY           SKY/WX    TMP DP  RH WIND       PRES   REMARKS
FAYETTEVILLE   CLEAR     54  48  82 CALM      30.25S
TULLAHOMA      CLEAR     45  43  93 CALM      30.27S
WINCHESTER     CLEAR     48  46  93 CALM        N/A
COLUMBIA       CLEAR     48  46  93 CALM      30.23S
SHELBYVILLE    CLEAR     48  46  93 E5        30.25S
$$

TNZ017-018-042-046-047-200500-
NORTHEAST TENNESSEE

CITY           SKY/WX    TMP DP  RH WIND       PRES   REMARKS
TRI CITIES     FAIR      47  45  93 CALM      30.30R
ELIZABETHTON   CLEAR     46  43  87 CALM      30.31S
$$

TNZ012-013-036-069-073-074-200500-
CENTRAL EAST TENNESSEE

CITY           SKY/WX    TMP DP  RH WIND       PRES   REMARKS
KNOXVILLE      FAIR      51  49  92 S5        30.27S
OAK RIDGE      FAIR      50  49  96 CALM      30.29S
DOWNTOWN KNOXV CLEAR     48  48 100 CALM      30.28S
GATLINBURG     CLEAR     46  45  93 CALM      30.28S
MORRISTOWN     CLEAR     52  46  82 CALM      30.28S
JACKSBORO      CLEAR     48  48 100 CALM      30.31S
$$

TNZ083-085-099-200500-
SOUTHEAST TENNESSEE

CITY           SKY/WX    TMP DP  RH WIND       PRES   REMARKS
CHATTANOOGA    CLEAR     52  48  86 CALM      30.28R
DAYTON         CLEAR     46  46 100 CALM      30.27S
$$

SKY/WX REPORTED AS FAIR MEANS FEW OR NO CLOUDS BELOW
12 THOUSAND FEET.




USA.gov is the U.S. government's official web portal to all federal, state and local government web resources and services.